Lexington Weather

Lexington, Massachusetts, USA

78°F
7/25/2024 12:51pm 
  • Lexington Conditions: Mostly cloudy
  • Temperature: 77.9°F / 25.5°CWarmer 0.4°F than last hour.
  • Dew Point: 72.3°FDecreased 0.7°Fsince last hour.
  • Relative Humidity: 83%Decreased 3.0% since last hour.
  • Wind: Wind from S S 1 mph, 10-min avg: 1 mph, gust: 7 mph
  • Barometer: 29.93 in Steady
  • Visibility: 10 miles
  • Rain Today: 0.00 in
  •   

Regional Weather Roundup
for Boston, MA

        
000
ASUS41 KBOX 182110
RWRBOX

REGIONAL WEATHER ROUNDUP
NATIONAL WEATHER SERVICE BOSTON/NORTON MA
500 PM EDT THU JUL 18 2024

NOTE:  "FAIR" INDICATES FEW OR NO CLOUDS BELOW 12,000 FEET WITH NO 
SIGNIFICANT WEATHER AND/OR OBSTRUCTIONS TO VISIBILITY.

MAZALL-182200-
EASTERN MASSACHUSETTS
  
CITY           SKY/WX    TMP DP  RH WIND       PRES   REMARKS
BOSTON         MOSUNNY   88  59  37 W13G20    29.83F                  
BEVERLY        MOSUNNY   86  59  39 NW9       29.82S                  
LAWRENCE       MOSUNNY   85  58  39 W12       29.85S                  
BEDFORD        MOSUNNY   84  57  39 W8        29.83F                  
NORWOOD        SUNNY     87  63  44 W12G21    29.85S                  
MARSHFIELD     PTSUNNY   82  70  65 VRB5      29.83S                  
PLYMOUTH       SUNNY     86  65  49 MISG      29.84F                  
TAUNTON        SUNNY     86  63  45 W7        29.84S                  
NEW BEDFORD    MOSUNNY   85  66  53 W6        29.84F                  
$$

MAZALL-182200-
CAPE COD AND THE ISLANDS
  
CITY           SKY/WX    TMP DP  RH WIND       PRES   REMARKS
FALMOUTH       SUNNY     82  66  57 CALM      29.87S                  
HYANNIS        SUNNY     81  68  64 N7        29.83F                  
CHATHAM        MOSUNNY   84  69  60 W3        29.85S                  
PROVINCETOWN   SUNNY     83  69  62 W6        29.85S                  
NANTUCKET      SUNNY     77  75  93 SW9       29.85F                  
MARTHAS VNYRD  SUNNY     82  70  66 W7        29.85S                  
$$
 
MAZALL-182200-
CENTRAL AND WESTERN MASSACHUSETTS
  
CITY           SKY/WX    TMP DP  RH WIND       PRES   REMARKS
WORCESTER      SUNNY     80  56  43 W10       29.92R                  
FITCHBURG      SUNNY     83  59  44 W10       29.87S                  
ORANGE           N/A     81  56  42 W9G18     29.91R                  
SPRINGFIELD    MOSUNNY   82  56  41 NW13      29.86S                  
WESTFIELD      MOSUNNY   84  56  38 NW13G25   29.90S                  
NORTH ADAMS    MOSUNNY   77  58  51 W9G18     29.92S                  
PITTSFIELD     MOSUNNY   75  54  47 NW8       29.95S                  
$$
 
RIZALL-182200-
RHODE ISLAND
  
CITY           SKY/WX    TMP DP  RH WIND       PRES   REMARKS
PROVIDENCE     PTSUNNY   85  65  51 W10       29.86F                  
NEWPORT        SUNNY     83  63  50 NW8       29.86F                  
BLOCK ISLAND   MOSUNNY   80  66  62 W7          N/A                   
SMITHFIELD     SUNNY     81  63  54 NW6       29.88S                  
WESTERLY       MOSUNNY   83  66  56 SW8       29.87S                  
$$
 
CTZALL-182200-
CONNECTICUT
  
CITY           SKY/WX    TMP DP  RH WIND       PRES   REMARKS
BRADLEY INTL   PTSUNNY   84  60  44 NW10      29.90S                  
HARTFORD       MOSUNNY   83  59  44 N10       29.88S                  
PLAINVILLE     PTCLDY    82  61  48 VRB5      29.89F                  
BRIDGEPORT     MOSUNNY   82  66  58 SW10      29.89F                  
DANBURY        MOSUNNY   83  62  49 W6        29.92S                  
GROTON         MOSUNNY   82  68  62 SW10      29.86F                  
NEW HAVEN      MOSUNNY   86  63  45 W12       29.89S                  
CHESTER        MOSUNNY   84  59  42 NW6       29.90F                  
MERIDEN        MOSUNNY   85  57  38 NW8       29.89F                  
WILLIMANTIC    MOSUNNY   83  61  47 W6        29.89S                  
OXFORD         MOSUNNY   78  63  59 NW6       29.94F                  
$$

MEZ002-015-021-024-NHZ003-005-008-011-012-014-VTZ005-008-182200-
NORTHERN NEW ENGLAND
  
CITY           SKY/WX    TMP DP  RH WIND       PRES   REMARKS
PORTLAND ME    MOSUNNY   86  56  35 W13       29.81S                  
BANGOR ME      MOSUNNY   84  59  42 W10G20    29.77R                  
CONCORD NH     SUNNY     82  55  39 W6        29.85S                  
MANCHESTER NH  PTSUNNY   86  54  33 W14       29.84R                  
NASHUA NH      MOSUNNY   85  58  39 W7        29.85S                  
PORTSMOUTH NH  PTSUNNY   87  60  39 W8        29.81S                  
JAFFREY NH     SUNNY     81  57  43 W6        29.91S                  
KEENE NH       SUNNY     81  58  45 NW9       29.88S                  
BURLINGTON VT  MOSUNNY   79  53  40 NW17      29.91R                  
MT. WASHINGTON PTSUNNY   48  45  87 W37G46      N/A                   
$$

NYZ052-076-182200-
EASTERN NEW YORK
  
CITY           SKY/WX    TMP DP  RH WIND       PRES   REMARKS
ALBANY         MOSUNNY   81  56  42 W12       29.94R                  
NEW YORK CITY  PTSUNNY   84  58  40 NW12      29.89F                  
$$
 
ANZALL-182200-
MARINE OBSERVATIONS
  
STATION/POSITION TIME  TEMP    WIND        PRES    VSBY  WAVE
                       AIR SEA DIR/SP/G                  HT/PER
                 (UTC) (F)     (DEG/KT/KT) (MB)    (MI)  (FT/S)
BOSTON BUOY      2050   73 68  150/  4/  6 1010.4F         1/ 7
BUZZARDS BAY     2000   76     240/ 10/ 10 1011.3F
NANTUCKET SOUND  2050   80 76   10/  4/  4 1010.2F         1/ 4
MASS BAY-STELLWA 1904   67 62  170/  6/  6 1010.5S  1 7/8  2/ 8
ISLE OF SHOALS   2000   80     190/  5/  7 1009.2F
S OF BLOCK IS    2056      75                N/A           7/ 8
$$

......................KEY.........................
  SKY/WX - SKY CONDITION/PRESENT WEATHER
  TMP    - TEMPERATURE IN FAHRENHEIT
  DWPT   - DEWPOINT IN FAHRENHEIT
  RH     - RELATIVE HUMIDITY IN PERCENT
  WIND   - DIRECTION AND SPEED IN MPH
  PRES   - MEAN SEA LEVEL PRESSURE IN INCHES OF HG
  WCI    - WIND CHILL INDEX
  VSB    - VISIBILITY IN MILES
  HX     - HEAT INDEX
  TC     - TEMPERATURE IN CELSIUS
  VRB    - VARIABLE WIND DIRECTION
  N/A    - NOT AVAILABLE
  
      

Other recent Regional Weather Roundups

Thu Jul 25, 12:10pm EDT

Thu Jul 25, 11:10am EDT

Thu Jul 25, 10:10am EDT

Thu Jul 25, 9:10am EDT

Thu Jul 25, 8:10am EDT

Thu Jul 25, 7:10am EDT

Thu Jul 25, 6:10am EDT

Thu Jul 25, 5:10am EDT

Thu Jul 25, 4:10am EDT

Thu Jul 25, 3:10am EDT

Thu Jul 25, 2:10am EDT

Thu Jul 25, 1:10am EDT

Thu Jul 25, 12:10am EDT

Wed Jul 24, 11:10pm EDT

Wed Jul 24, 10:10pm EDT

Wed Jul 24, 9:10pm EDT

Wed Jul 24, 8:10pm EDT

Wed Jul 24, 7:10pm EDT

Wed Jul 24, 6:10pm EDT

Wed Jul 24, 5:10pm EDT

Wed Jul 24, 4:10pm EDT

Wed Jul 24, 3:10pm EDT

Wed Jul 24, 2:10pm EDT

Wed Jul 24, 1:10pm EDT

Wed Jul 24, 12:10pm EDT

Wed Jul 24, 11:10am EDT

Wed Jul 24, 10:10am EDT

Wed Jul 24, 9:10am EDT

Wed Jul 24, 8:10am EDT

Wed Jul 24, 7:10am EDT

Wed Jul 24, 6:10am EDT

Wed Jul 24, 5:10am EDT

Wed Jul 24, 4:10am EDT

Wed Jul 24, 3:10am EDT

Wed Jul 24, 2:10am EDT

Wed Jul 24, 1:10am EDT

Wed Jul 24, 12:10am EDT

Tue Jul 23, 11:10pm EDT

Tue Jul 23, 10:10pm EDT

Tue Jul 23, 9:10pm EDT

Tue Jul 23, 8:10pm EDT

Tue Jul 23, 7:10pm EDT

Tue Jul 23, 6:10pm EDT

Tue Jul 23, 5:10pm EDT

Tue Jul 23, 4:10pm EDT

Tue Jul 23, 3:10pm EDT

Tue Jul 23, 2:10pm EDT

Tue Jul 23, 1:10pm EDT

Tue Jul 23, 12:10pm EDT

Tue Jul 23, 11:10am EDT

Tue Jul 23, 10:10am EDT

Tue Jul 23, 10:10am EDT

Tue Jul 23, 9:10am EDT

Tue Jul 23, 8:10am EDT

Tue Jul 23, 7:10am EDT

Tue Jul 23, 6:10am EDT

Tue Jul 23, 5:10am EDT

Tue Jul 23, 4:10am EDT

Tue Jul 23, 3:10am EDT

Tue Jul 23, 2:10am EDT

Tue Jul 23, 1:10am EDT

Tue Jul 23, 12:10am EDT

Mon Jul 22, 11:10pm EDT

Mon Jul 22, 10:10pm EDT

Mon Jul 22, 9:10pm EDT

Mon Jul 22, 8:10pm EDT

Mon Jul 22, 7:10pm EDT

Mon Jul 22, 6:10pm EDT

Mon Jul 22, 5:10pm EDT

Mon Jul 22, 4:10pm EDT

Mon Jul 22, 3:10pm EDT

Mon Jul 22, 2:10pm EDT

Mon Jul 22, 1:10pm EDT

Mon Jul 22, 12:10pm EDT

Mon Jul 22, 11:10am EDT

Mon Jul 22, 10:10am EDT

Mon Jul 22, 9:10am EDT

Mon Jul 22, 8:10am EDT

Mon Jul 22, 7:10am EDT

Mon Jul 22, 6:10am EDT

Mon Jul 22, 5:10am EDT

Mon Jul 22, 4:10am EDT

Mon Jul 22, 3:10am EDT

Mon Jul 22, 2:10am EDT

Mon Jul 22, 1:10am EDT

Mon Jul 22, 12:10am EDT

Sun Jul 21, 11:10pm EDT

Sun Jul 21, 10:10pm EDT

Sun Jul 21, 9:10pm EDT

Sun Jul 21, 8:10pm EDT

Sun Jul 21, 7:10pm EDT

Sun Jul 21, 6:10pm EDT

Sun Jul 21, 5:10pm EDT

Sun Jul 21, 4:10pm EDT

Sun Jul 21, 3:10pm EDT

Sun Jul 21, 2:10pm EDT

Sun Jul 21, 1:10pm EDT

Sun Jul 21, 12:10pm EDT

Sun Jul 21, 11:10am EDT

Sun Jul 21, 10:10am EDT

Sun Jul 21, 9:10am EDT

Sun Jul 21, 8:10am EDT

Sun Jul 21, 7:10am EDT

Sun Jul 21, 6:10am EDT

Sun Jul 21, 5:10am EDT

Sun Jul 21, 4:10am EDT

Sun Jul 21, 3:10am EDT

Sun Jul 21, 2:10am EDT

Sun Jul 21, 1:10am EDT

Sun Jul 21, 12:10am EDT

Sat Jul 20, 11:10pm EDT

Sat Jul 20, 10:10pm EDT

Sat Jul 20, 9:10pm EDT

Sat Jul 20, 8:10pm EDT

Sat Jul 20, 7:10pm EDT

Sat Jul 20, 6:10pm EDT

Sat Jul 20, 5:10pm EDT

Sat Jul 20, 4:10pm EDT

Sat Jul 20, 3:10pm EDT

Sat Jul 20, 2:10pm EDT

Sat Jul 20, 1:10pm EDT

Sat Jul 20, 12:10pm EDT

Sat Jul 20, 11:10am EDT

Sat Jul 20, 10:10am EDT

Sat Jul 20, 9:10am EDT

Sat Jul 20, 8:10am EDT

Sat Jul 20, 7:10am EDT

Sat Jul 20, 6:10am EDT

Sat Jul 20, 5:10am EDT

Sat Jul 20, 4:10am EDT

Sat Jul 20, 3:10am EDT

Sat Jul 20, 2:10am EDT

Sat Jul 20, 1:10am EDT

Sat Jul 20, 12:10am EDT

Fri Jul 19, 11:10pm EDT

Fri Jul 19, 10:10pm EDT

Fri Jul 19, 9:10pm EDT

Fri Jul 19, 8:10pm EDT

Fri Jul 19, 7:10pm EDT

Fri Jul 19, 6:10pm EDT

Fri Jul 19, 5:10pm EDT

Fri Jul 19, 4:10pm EDT

Fri Jul 19, 3:10pm EDT

Fri Jul 19, 2:10pm EDT

Fri Jul 19, 1:10pm EDT

Fri Jul 19, 12:10pm EDT

Fri Jul 19, 11:10am EDT

Fri Jul 19, 10:10am EDT

Fri Jul 19, 9:10am EDT

Fri Jul 19, 8:10am EDT

Fri Jul 19, 7:10am EDT

Fri Jul 19, 6:10am EDT

Fri Jul 19, 5:10am EDT

Fri Jul 19, 4:10am EDT

Fri Jul 19, 3:10am EDT

Fri Jul 19, 2:10am EDT

Fri Jul 19, 1:10am EDT

Fri Jul 19, 12:10am EDT

Thu Jul 18, 11:10pm EDT

Thu Jul 18, 10:10pm EDT

Thu Jul 18, 9:10pm EDT

Thu Jul 18, 8:10pm EDT

Thu Jul 18, 7:10pm EDT

Thu Jul 18, 6:10pm EDT

Thu Jul 18, 4:10pm EDT

Thu Jul 18, 3:10pm EDT

Thu Jul 18, 2:10pm EDT

Thu Jul 18, 1:10pm EDT